OpenBCM V1.07b12 (Linux)

Packet Radio Mailbox

DB0FHN

[JN59NK Nuernberg]

 Login: GUEST





  
OK1MJO > VESMIR   08.04.03 12:38l 286 Lines 15489 Bytes #999 (0) @ WW
BID : 84DOK0NAG019
Read: DB0FHN GUEST
Subj: Iridium Kepler 2-line
Path: DB0FHN<DB0RGB<OK0PPL<OK0PAD<OK0PCC<OK0NAG
Sent: 030408/1015z @:OK0NAG.#BOH.CZE.EU [TCP/IP BBS Plzen] bcm2.01e+

Od: OK1MJO @OK0NAG.#BOH.CZE.EU (Martin JO60SH) Pro: VESMIR @ WW
X-Info: Prijato od 217.66.168.75 za pomoci HTTP rozhrani

IRIDIUM 8               
1 24792U 97020A   03096.90087576 -.00000154  00000-0 -61965-4 0   637
2 24792  86.3968 325.6078 0002426  71.0741 289.0709 14.34216404309984
IRIDIUM 7               
1 24793U 97020B   03096.68522834 -.00000198  00000-0 -77788-4 0   654
2 24793  86.3985 325.7442 0002636  61.2146 298.9303 14.34215867309951
IRIDIUM 6               
1 24794U 97020C   03096.60911608 -.00000110  00000-0 -46406-4 0  8631
2 24794  86.3945 325.7920 0002375  79.3871 280.7612 14.34215609309949
IRIDIUM 5               
1 24795U 97020D   03096.67254318 -.00000155  00000-0 -62500-4 0  1441
2 24795  86.3988 325.8182 0002531  61.7945 298.3500 14.34216018310037
IRIDIUM 4               
1 24796U 97020E   03097.18629152 -.00000265  00000-0 -10155-3 0   912
2 24796  86.3957 325.4551 0002480  73.5964 286.5546 14.34215216310044
IRIDIUM 914             
1 24836U 97030A   03096.79302379  .00000546  00000-0  17821-3 0  6411
2 24836  86.3995 355.2872 0002010 108.2900 251.8516 14.36869954303920
IRIDIUM 12              
1 24837U 97030B   03097.24679875 -.00000181  00000-0 -71642-4 0   829
2 24837  86.4014 357.0036 0002605  64.6389 295.5076 14.34215923303781
IRIDIUM 9               
1 24838U 97030C   03070.00432100  .30640144 -10971-5  67398-3 0  3204
2 24838  86.4222 315.2893 0006442 225.1811 135.0798 16.46418872308010
IRIDIUM 10              
1 24839U 97030D   03096.81550287 -.00000188  00000-0 -74106-4 0   654
2 24839  86.4025 357.1906 0002648  58.5503 301.5951 14.34216009303730
IRIDIUM 13              
1 24840U 97030E   03097.25314079 -.00000251  00000-0 -96564-4 0   532
2 24840  86.4029 357.0338 0002693  61.7179 298.4286 14.34215715303782
IRIDIUM 16              
1 24841U 97030F   03096.84721228 -.00000194  00000-0 -76324-4 0   779
2 24841  86.4026 357.2830 0002632  62.1677 297.9780 14.34217124303723
IRIDIUM 911             
1 24842U 97030G   03096.83178699  .00000723  00000-0  21227-3 0  7210
2 24842  86.4513   0.0175 0016169 359.2329   0.8843 14.42410265304917
IRIDIUM 15              
1 24869U 97034A   03096.89503751 -.00000085  00000-0 -37576-4 0   660
2 24869  86.3999  28.7327 0002583  65.1523 294.9940 14.34216436300705
IRIDIUM 17              
1 24870U 97034B   03096.88869590 -.00000125  00000-0 -51552-4 0   729
2 24870  86.3995  28.7613 0002639  58.9098 301.2356 14.34216107300708
IRIDIUM 920             
1 24871U 97034C   03096.86543221  .00000718  00000-0  23326-3 0  6479
2 24871  86.4020  27.0639 0014624  85.1873 275.0994 14.37435682301003
IRIDIUM 18              
1 24872U 97034D   03097.34535847 -.00000236  00000-0 -91227-4 0   780
2 24872  86.4004  28.6035 0002636  63.0657 297.0806 14.34216417300766
IRIDIUM 921             
1 24873U 97034E   03096.72612314  .00004474  00000-0  42608-3 0  8453
2 24873  86.3875 317.0883 0012710  51.4367 308.7999 14.93113441310831
IRIDIUM 26              
1 24903U 97043A   03097.54097891  .00000210  00000-0  67766-4 0  1196
2 24903  86.3918 262.1268 0002202  66.6024 293.5402 14.34219159294731
IRIDIUM 25              
1 24904U 97043B   03097.50293527  .00000207  00000-0  66953-4 0   739
2 24904  86.3912 262.1281 0002251  59.8443 300.2973 14.34218203294697
IRIDIUM 46              
1 24905U 97043C   03097.51560683  .00000222  00000-0  72311-4 0   913
2 24905  86.3920 262.2017 0002179  61.9713 298.1702 14.34219170294709
IRIDIUM 23              
1 24906U 97043D   03097.07161847 -.00000100  00000-0 -42613-4 0   924
2 24906  86.3906 262.2754 0002199  65.6777 294.4647 14.34216701294642
IRIDIUM 22              
1 24907U 97043E   03097.55366281  .00000250  00000-0  82252-4 0   609
2 24907  86.3917 262.1719 0002178  59.2401 300.9009 14.34219655294719
DUMMY MASS 1            
1 24925U 97048A   03096.96410244  .00000682  00000-0  79937-4 0  5753
2 24925  86.3292 269.8003 0007932   1.4375 358.6869 14.83324146302560
DUMMY MASS 2            
1 24926U 97048B   03096.97059595  .00000606  00000-0  70985-4 0  6114
2 24926  86.3295 270.0951 0008804   1.4207 358.7039 14.83109979302524
IRIDIUM 29              
1 24944U 97051A   03097.56343494  .00000197  00000-0  63210-4 0   299
2 24944  86.3918 293.7337 0002489  53.1186 307.0230 14.34218452291282
IRIDIUM 32              
1 24945U 97051B   03096.95454042  .00000214  00000-0  69171-4 0   364
2 24945  86.3908 293.9897 0002377  69.8630 290.2830 14.34219860291215
IRIDIUM 33              
1 24946U 97051C   03096.96088209  .00000186  00000-0  59425-4 0    37
2 24946  86.3926 293.9860 0002466  55.4563 304.6876 14.34219041291201
IRIDIUM 28              
1 24948U 97051E   03096.58032434 -.00000691  00000-0 -25377-3 0  8495
2 24948  86.3876 294.1501 0002299  75.1439 285.0075 14.34212679291132
IRIDIUM 30              
1 24949U 97051F   03097.08772794  .00000245  00000-0  80316-4 0   560
2 24949  86.3940 293.9588 0002510  56.2431 303.9007 14.34220252291215
IRIDIUM 31              
1 24950U 97051G   03097.08139210  .00000322  00000-0  10785-3 0   593
2 24950  86.3926 293.9315 0002533  52.4767 307.6665 14.34220307291227
IRIDIUM 19              
1 24965U 97056A   03097.55415490  .00000004  00000-0 -57896-5 0   430
2 24965  86.3961 325.2931 0002445  69.6106 290.5317 14.34218300289438
IRIDIUM 35              
1 24966U 97056B   03097.56684230 -.00000070  00000-0 -31951-4 0   866
2 24966  86.3992 325.3293 0002465  58.8881 301.2546 14.34218344289417
IRIDIUM 36              
1 24967U 97056C   03096.66619810 -.00000133  00000-0 -54403-4 0   305
2 24967  86.3999 325.7171 0002518  65.3943 294.7504 14.34216702289422
IRIDIUM 37              
1 24968U 97056D   03096.70424587 -.00000086  00000-0 -37644-4 0   648
2 24968  86.3958 325.7166 0002491  61.1368 299.0059 14.34218649289297
IRIDIUM 34              
1 24969U 97056E   03096.72327923 -.00000037  00000-0 -20219-4 0   373
2 24969  86.3961 325.6763 0002413  67.1027 293.0420 14.34218103289297
IRIDIUM 43              
1 25039U 97069A   03097.33902048 -.00000170  00000-0 -67897-4 0   316
2 25039  86.4000  28.6155 0002686  61.4930 298.6538 14.34215440283160
IRIDIUM 41              
1 25040U 97069B   03097.33267647 -.00000128  00000-0 -52882-4 0   374
2 25040  86.3998  28.5873 0002750  56.6887 303.4571 14.34216047283168
IRIDIUM 40              
1 25041U 97069C   03096.86966500 -.00000164  00000-0 -65460-4 0   114
2 25041  86.3997  28.7786 0002644  65.1607 294.9854 14.34216553283115
IRIDIUM 39              
1 25042U 97069D   03094.57364202  .00000020  00000-0  17968-7 0   305
2 25042  86.3997  29.7300 0002577  62.4840 297.6614 14.34219329282761
IRIDIUM 38              
1 25043U 97069E   03096.90772472 -.00000203  00000-0 -79431-4 0   335
2 25043  86.3993  28.6906 0002695  58.2330 301.9128 14.34215237283142
IRIDIUM 42              
1 25077U 97077A   03096.86332104 -.00000170  00000-0 -67817-4 0   507
2 25077  86.3998  28.8126 0002685  59.8602 300.2858 14.34216903278954
IRIDIUM 44              
1 25078U 97077B   03096.83602044  .00000447  00000-0  14692-3 0  5319
2 25078  86.4000  27.7318 0003046  27.2691 332.8673 14.36098228279036
IRIDIUM 45              
1 25104U 97082A   03096.95111117 -.00000021  00000-0 -14638-4 0  9825
2 25104  86.3928 262.4185 0002239  58.5845 301.5558 14.34218037277162
IRIDIUM 24              
1 25105U 97082B   03097.04853499  .00000829  00000-0  26999-3 0  5892
2 25105  86.3873 259.8420 0014017  93.9897 266.2903 14.37546292277410
IRIDIUM 47              
1 25106U 97082C   03097.03356499 -.00000114  00000-0 -47618-4 0  9907
2 25106  86.3905 262.3655 0002185  61.7738 298.3675 14.34216164277170
IRIDIUM 49              
1 25108U 97082E   03097.53463125 -.00000212  00000-0 -82685-4 0    25
2 25108  86.3907 262.1076 0002352  65.0158 295.1279 14.34215725277254
IRIDIUM 52              
1 25169U 98010A   03096.65693528 -.00000981  00000-0 -35737-3 0  7887
2 25169  86.4009 357.3049 0002614  86.9932 273.1567 14.34211204268530
IRIDIUM 56              
1 25170U 98010B   03096.79012778 -.00000187  00000-0 -73800-4 0  1680
2 25170  86.4025 357.2422 0002563  59.9715 300.1727 14.34216933268539
IRIDIUM 54              
1 25171U 98010C   03097.24045662 -.00000092  00000-0 -40032-4 0   102
2 25171  86.4015 357.0574 0002593  63.0375 297.1084 14.34216565268763
IRIDIUM 50              
1 25172U 98010D   03096.78378738 -.00000230  00000-0 -89113-4 0  9841
2 25172  86.4032 357.2294 0002615  64.5655 295.5806 14.34216010268530
IRIDIUM 53              
1 25173U 98010E   03096.80281414 -.00000060  00000-0 -28462-4 0  9783
2 25173  86.4015 357.2264 0002583  72.0704 288.0770 14.34217306268550
IRIDIUM 51              
1 25262U 98018A   03096.68456100  .00000748  00000-0  21707-3 0   609
2 25262  86.4486 325.6861 0002457  53.8370 306.3062 14.43156321264945
IRIDIUM 61              
1 25263U 98018B   03096.71059713 -.00000163  00000-0 -65253-4 0  9576
2 25263  86.3991 325.7153 0002541  60.4880 299.6562 14.34216277263625
IRIDIUM 55              
1 25272U 98019A   03097.13212349 -.00000102  00000-0 -43644-4 0  9674
2 25272  86.3913 293.8746 0002362  59.8990 300.2429 14.34217472262883
IRIDIUM 57              
1 25273U 98019B   03096.89744290  .00000112  00000-0  32976-4 0  9745
2 25273  86.3901 294.0527 0002229  63.0790 297.0616 14.34220585262855
IRIDIUM 58              
1 25274U 98019C   03096.97356544 -.00000446  00000-0 -16646-3 0  7774
2 25274  86.3892 294.0556 0002354  78.6155 281.5350 14.34214999262869
IRIDIUM 59              
1 25275U 98019D   03096.97990371  .00000103  00000-0  29647-4 0  7557
2 25275  86.3951 294.0335 0002429  57.9271 302.2158 14.34219956262868
